weather.gov     
National Weather Service

Regional Weather Roundup
NWS Homepage
This page is being discontinued on March 12, 2014.
The same data is available at this site. Please update your bookmarks.
Thank you, and we apologize for the inconvenience.
Please send an email to SR-SRH.Webmaster@noaa.gov with any concerns.


Current Version
Previous Version:    01  02  03  04  05  06  07  08  09  10  11  12  13  14  15  16  17  18  19  20  21  22  23  24  
[Printable]
266
ASUS44 KSJT 200210
RWRSJT
WEST CENTRAL TEXAS REGIONAL WEATHER ROUNDUP
NATIONAL WEATHER SERVICE SAN ANGELO TX
800 PM CST FRI DEC 19 2014

NOTE: "FAIR" INDICATES FEW OR NO CLOUDS BELOW 12,000 FEET WITH NO
SIGNIFICANT WEATHER AND/OR OBSTRUCTIONS TO VISIBILITY.

TXZ049-054-064>066-071>073-076>078-098-099-113-114-127-128-139-140-
154-155-168>170-200300
...LOCATIONS ACROSS WEST CENTRAL TEXAS...

CITY           SKY/WX    TMP DP  RH WIND       PRES   REMARKS
SAN ANGELO     CLOUDY    49  41  74 NE8       30.17R
ABILENE        CLOUDY    45  41  86 N6        30.20R
DYESS AFB      CLOUDY    46  38  76 CALM      30.19R
JUNCTION       CLEAR     46  43  89 NE3       30.15R
SWEETWATER     CLOUDY    46  38  76 E3        30.21S
BROWNWOOD      CLOUDY    48  41  76 NE3       30.19R
COLEMAN        CLOUDY    47  44  87 NE7       30.18R
SONORA         CLEAR     46  43  87 N6        30.20R
OZONA          FAIR      45  39  81 NE5       30.18R
BRADY          NOT AVBL
$$

TEXAS PANHANDLE/OKLAHOMA PANHANDLE

CITY           SKY/WX    TMP DP  RH WIND       PRES   REMARKS
AMARILLO       CLOUDY    39  35  86 S6        30.13F WCI  35
BORGER         CLOUDY    42  35  76 S7        30.13F WCI  38
CANADIAN       CLOUDY    43  38  82 CALM      30.14F
DALHART        CLEAR     28  26  92 S6        30.11R FOG     WCI  22
DUMAS          CLEAR     30  29  96 S6        30.11S WCI  24
GUYMON         NOT AVBL
HEREFORD       CLEAR     32  31  98 CALM      30.13S FOG
PAMPA          CLOUDY    40  35  83 S5        30.14S WCI  37
PERRYTON       CLOUDY    40  37  86 SW8       30.13S WCI  35
$$

SOUTHERN PANHANDLE/SOUTH PLAINS/ROLLING PLAINS

CITY           SKY/WX    TMP DP  RH WIND       PRES   REMARKS
LUBBOCK        CLOUDY    37  35  92 E7        30.14S WCI  32
SNYDER         CLOUDY    43  38  82 CALM      30.19R
CHILDRESS      CLOUDY    43  39  86 SE5       30.20R
SEMINOLE       CLEAR     40  35  82 E6        30.14S WCI  36
$$

PERMIAN BASIN

CITY           SKY/WX    TMP DP  RH WIND       PRES   REMARKS
MIDLAND        CLEAR     43  37  79 E10       30.14R WCI  37
ODESSA         CLEAR     44  36  73 E9        30.14R WCI  39
WINK           CLEAR     46  30  53 S9        30.11R
$$

FAR WEST/SOUTHWEST MOUNTAINS/TRANS PECOS

CITY           SKY/WX    TMP DP  RH WIND       PRES   REMARKS
ALPINE         CLEAR     43  29  57 CALM      30.21S
DRYDEN           N/A     53  37  54 N7        30.11R
EL PASO        CLEAR     49  26  41 NW5       30.14R
FORT STOCKTON  CLEAR     49  33  54 NE5       30.14R
GUADALUPE PASS NOT AVBL
MARFA          CLEAR     36  21  55 NW5       30.17S WCI  32
PECOS          CLEAR     46  31  56 E5        30.12S
$$

DALLAS/FORT WORTH METROPLEX

CITY           SKY/WX    TMP DP  RH WIND       PRES   REMARKS
DFW AIRPORT    CLOUDY    47  44  90 N9        30.18S
FTW MEACHAM    CLOUDY    48  43  82 N8        30.19R
DAL-EXECUTIVE  CLOUDY    50  45  83 N6        30.17F
GRAND PRAIRIE  CLOUDY    48  46  95 N6        30.20S
ADDISON        CLOUDY    48  43  81 N6        30.19S FOG
MESQUITE       CLOUDY    48  45  87 N6        30.19S
LANCASTER      CLOUDY    48  44  86 N6        30.20R
$$

NORTH CENTRAL TEXAS

CITY           SKY/WX    TMP DP  RH WIND       PRES   REMARKS
SHRMAN/DENISON CLOUDY    45  44  98 CALM      30.21R
GAINESVILLE    CLOUDY    44  40  87 N5        30.23R
BRIDGEPORT     CLOUDY    46  43  88 N5        30.23R
DENTON         CLOUDY    46  42  86 N8        30.20R
WAXAHACHIE     CLOUDY    47  47 100 N6        30.19S FOG
GRANBURY       CLOUDY    49  44  83 N3        30.21R
$$

WESTERN NORTH TEXAS

CITY           SKY/WX    TMP DP  RH WIND       PRES   REMARKS
WICHITA FALLS  CLOUDY    44  40  85 NE5       30.21R
VERNON         CLOUDY    45  38  76 CALM      30.22S
BRECKENRIDGE   CLOUDY    48  41  74 N3        30.20R
COMANCHE       CLOUDY    46  46  99 N6        30.18R
$$

CENTRAL AND SOUTH CENTRAL TEXAS

CITY           SKY/WX    TMP DP  RH WIND       PRES   REMARKS
AUSTIN/BERGSTM CLOUDY    50  46  86 N13       30.17R
WACO           CLOUDY    49  45  86 NW7       30.18S
HILLSBORO      CLOUDY    48  46  91 N6        30.18R FOG
TEMPLE         CLOUDY    46  43  87 N10       30.17R
KILLEEN-GRAY   DRZL/FOG  46  46  99 N10       30.18R VSB 1/2
FORT HOOD      CLOUDY    47  46  97 N8        30.18R FOG
GEORGETOWN     CLOUDY    48  46  93 N12       30.17R
LAGO VISTA     CLOUDY    48  46  92 N8        30.17R FOG
SAN MARCOS     CLOUDY    52  45  76 N15       30.16R
NEW BRAUNFELS  CLOUDY    54  47  77 NE12      30.14R
RANDOLPH AFB   CLOUDY    53  46  76 N12       30.14R
SAN ANTONIO    MOCLDY    54  47  77 N8        30.14R
STINSON        PTCLDY    54  46  74 NE9       30.13R
PLEASANTON     NOT AVBL
LA GRANGE      CLOUDY    53  50  91 N8G17     30.13R
GIDDINGS       CLOUDY    50  47  88 N12       30.19R
$$

EAST TEXAS

CITY           SKY/WX    TMP DP  RH WIND       PRES   REMARKS
PARIS          CLOUDY    45  41  87 E7        30.20F
CLARKSVILLE    NOT AVBL
TYLER          CLOUDY    47  45  93 N8        30.17R FOG
LONGVIEW       CLOUDY    48  44  86 NE7       30.17R
PALESTINE      CLOUDY    48  48 100 N7        30.18R FOG
NACOGDOCHES    CLOUDY    46  45  93 NE5       30.15S
$$

TEXAS HILL COUNTRY AND EDWARDS PLATEAU

CITY           SKY/WX    TMP DP  RH WIND       PRES   REMARKS
LLANO          CLOUDY    52  46  82 NE3       30.21R
HORSESHOE BAY  CLOUDY    51  45  81 NE5       30.17R
KERRVILLE      CLOUDY    51  47  85 N6        30.16R
FREDERICKSBRG  CLOUDY    49  44  83 NE5       30.16R
ROCKSPRINGS    CLEAR     48  45  87 NE6       30.15R
HONDO          CLEAR     53  47  79 NE9       30.14R
UVALDE         CLEAR     39  37  91 E8        30.13R WCI  33
DEL RIO        CLEAR     57  44  62 CALM      30.09R
$$

SOUTHEAST TEXAS

CITY           SKY/WX    TMP DP  RH WIND       PRES   REMARKS
COLLEGE STN    CLOUDY    51  49  92 N10       30.14R
CALDWELL       CLOUDY    48  48 100 NW10      30.18R FOG
CROCKETT       CLOUDY    52  52 100 N7        30.17S
BRENHAM        CLOUDY    53  52  94 N13       30.14R
HUNTSVILLE     CLOUDY    50  49  96 VRB6      30.13S FOG
CONROE         CLOUDY    52  50  93 N8        30.12R
HOUSTON BUSH   CLOUDY    55  52  89 N13       30.10R
HOUSTON HOBBY  CLOUDY    55  53  93 N17       30.08R
PERLAND        CLOUDY    55  53  93 NE12      30.10R
WHARTON        CLOUDY    55  54  96 N16       30.10R FOG
$$

THE UPPER TEXAS COAST

CITY           SKY/WX    TMP DP  RH WIND       PRES   REMARKS
ORANGE         DRIZZLE   53  53  97 N7        30.09R
PORT ARTHUR    CLOUDY    54  52  93 N14       30.06R
GALVESTON      LGT RAIN  56  55  97 N21       30.07R
ANGLETON       CLOUDY    53  53 100 N13       30.08R
BAY CITY         N/A     58  56  95 N9        30.07R
$$

TEXAS COASTAL BEND, RIO GRANDE PLAINS DEEP SOUTH TEXAS

CITY           SKY/WX    TMP DP  RH WIND       PRES   REMARKS
VICTORIA       CLOUDY    58  54  86 N12       30.09R
BEEVILLE       CLOUDY    58  53  82 N14       30.10R
ROCKPORT       CLOUDY    61  56  83 N14       30.08R
PORT ARANSAS   CLOUDY    60  56  85 N13       30.07R
PORT LAVACA    CLOUDY    57  56  94 N15       30.08S
CORPUS CHRISTI CLOUDY    61  56  83 N8        30.08R
KINGSVILLE NAS CLOUDY    62  58  86 N8        30.09R
COTULLA        CLEAR     57  50  77 E6        30.11R
LAREDO         CLEAR     57  54  88 N5        30.12R
BROWNSVILLE    CLOUDY    60  56  86 N14       30.07R
PORT ISABEL    CLOUDY    61  57  87 N14       30.06R
HEBBRONVILLE   CLEAR     55  52  89 N3        30.11R
MCALLEN        PTCLDY    62  56  80 N8        30.10R
WESLACO        CLOUDY    61  55  81 N7        30.08R
FALFURRIAS     CLOUDY    62  55  78 N7        30.08R
EDINBURG       PTCLDY    61  56  83 N7        30.09R
$$




U.S. Dept. of Commerce
NOAA National Weather Service
1325 East West Highway
Silver Spring, MD 20910
E-mail: w-nws.webmaster@noaa.gov
Page last modified: May 16, 2007
NATIONAL WEATHER SERVICE: for Safety, for Work, for Fun - FOR LIFE